GW2946 Weather Reports


time (UTC)temp
F
wind
direction
speed
knots
gust
knots
rain 1hr
in
rain 24hr
in
rain mn
in
humidity
%
barometer
mb
20260503022245 42 328 0.9 0.9 0.00 0.01 0.01 75 1018.4
20260503021742 41 2 0.0 0.0 0.00 0.01 0.01 77 1018.4
20260503021238 42 340 0.9 0.9 0.00 0.01 0.01 77 1018.5
20260503020736 42 339 0.9 0.9 0.00 0.01 0.01 78 1018.4
20260503020234 42 340 0.9 0.9 0.00 0.01 0.01 70 1018.3
20260503015730 42 340 0.9 0.9 0.00 0.01 0.01 71 1018.4
20260503015227 42 340 0.9 0.9 0.00 0.01 0.01 73 1018.2
20260503014723 42 340 0.9 0.9 0.00 0.01 0.01 73 1018.2
20260503014221 43 340 0.9 0.9 0.00 0.01 0.01 74 1018.0
20260503013718 43 340 0.9 1.7 0.00 0.01 0.01 70 1018.1
20260503013216 43 342 1.7 1.7 0.00 0.01 0.01 71 1018.1
20260503012713 43 343 1.7 1.7 0.00 0.01 0.01 70 1018.0
20260503012210 43 343 1.7 1.7 0.00 0.01 0.01 68 1018.0
20260503011706 43 344 1.7 1.7 0.00 0.01 0.01 67 1018.0
20260503011203 44 350 1.7 2.6 0.00 0.01 0.01 66 1017.8
20260503010659 44 6 1.7 1.7 0.00 0.01 0.01 66 1017.9
20260503010156 44 348 1.7 1.7 0.00 0.01 0.01 65 1018.0
20260503005654 44 10 1.7 2.6 0.00 0.01 0.01 65 1017.9
20260503005151 44 359 2.6 2.6 0.00 0.01 0.01 65 1017.8
20260503004647 44 353 0.0 0.9 0.00 0.01 0.01 66 1017.8
20260503004145 44 357 0.9 1.7 0.00 0.01 0.01 65 1017.9
20260503003642 44 342 1.7 1.7 0.00 0.01 0.01 66 1017.7
20260503003134 44 28 0.9 0.9 0.00 0.01 0.01 65 1017.7
20260503002631 45 358 0.0 0.0 0.00 0.01 0.01 66 1017.8
20260503002128 45 10 0.9 0.9 0.00 0.01 0.01 65 1017.7
20260503001623 45 37 1.7 2.6 0.00 0.01 0.01 62 1017.8
20260503001121 45 1 0.9 0.9 0.00 0.01 0.01 65 1017.7
20260503000618 45 357 1.7 1.7 0.00 0.01 0.01 65 1017.6
20260503000115 45 341 0.9 0.9 0.00 0.01 0.01 63 1017.8
20260502235612 45 5 3.5 5.2 0.00 0.01 0.01 62 1017.7
20260502235110 45 31 1.7 2.6 0.00 0.01 0.01 62 1017.5
20260502234605 46 57 1.7 2.6 0.00 0.01 0.01 62 1017.5
20260502234103 46 47 2.6 3.5 0.00 0.01 0.01 60 1017.5
20260502233558 46 49 1.7 2.6 0.00 0.01 0.01 61 1017.5
20260502233055 46 10 2.6 3.5 0.00 0.01 0.01 60 1017.4
20260502232551 46 9 6.1 7.8 0.00 0.01 0.01 57 1017.4
20260502232049 46 349 6.1 7.0 0.00 0.01 0.01 53 1017.3
20260502231545 46 349 6.1 7.0 0.00 0.01 0.01 54 1017.4
20260502231043 46 352 5.2 7.0 0.00 0.01 0.01 53 1017.4
20260502230541 46 343 5.2 7.0 0.00 0.01 0.01 53 1017.3
20260502230040 47 342 8.7 9.6 0.00 0.01 0.01 54 1017.4
20260502225535 47 7 1.7 2.6 0.00 0.01 0.01 54 1017.3
20260502225032 47 349 7.8 8.7 0.00 0.01 0.01 54 1017.4
20260502224528 47 328 7.8 7.8 0.00 0.01 0.01 55 1017.3
20260502224025 47 330 7.8 9.6 0.00 0.01 0.01 56 1017.3
20260502223523 47 14 4.3 6.1 0.00 0.01 0.01 59 1017.2
20260502223021 47 354 2.6 5.2 0.00 0.01 0.01 59 1017.3
20260502222518 47 356 4.3 6.1 0.00 0.01 0.01 57 1017.2
20260502222014 47 346 4.3 5.2 0.00 0.01 0.01 56 1017.2
20260502221510 48 335 4.3 6.1 0.00 0.01 0.01 57 1017.2
20260502221008 47 2 5.2 6.1 0.00 0.01 0.01 52 1017.1
20260502220503 47 23 6.1 7.0 0.00 0.01 0.01 54 1017.3
20260502220000 47 45 3.5 5.2 0.00 0.01 0.01 54 1017.1
20260502215457 47 8 5.2 7.0 0.00 0.01 0.01 56 1017.1
20260502214954 48 35 5.2 6.1 0.00 0.01 0.01 56 1017.1
20260502214451 48 16 7.8 8.7 0.00 0.01 0.01 60 1017.2
20260502213948 48 357 5.2 7.8 0.00 0.01 0.01 58 1016.7
20260502213445 48 341 4.3 5.2 0.00 0.01 0.01 54 1017.0
20260502212943 49 327 7.8 7.8 0.00 0.01 0.01 50 1016.9
20260502212442 48 342 6.1 7.0 0.00 0.01 0.01 56 1017.0
20260502211939 48 340 7.8 9.6 0.00 0.01 0.01 58 1017.0
20260502211434 48 321 7.8 8.7 0.00 0.01 0.01 51 1016.9
20260502210932 48 339 7.8 8.7 0.00 0.01 0.01 56 1016.7
20260502210428 49 328 8.7 9.6 0.00 0.01 0.01 53 1017.0
20260502205926 48 314 8.7 11.3 0.00 0.01 0.01 60 1016.8
20260502205422 48 355 7.0 8.7 0.00 0.01 0.01 52 1016.7
20260502204919 48 352 5.2 6.1 0.00 0.01 0.01 54 1016.9
20260502204416 49 341 8.7 9.6 0.00 0.01 0.01 53 1017.0
20260502203914 49 336 7.8 8.7 0.00 0.01 0.01 53 1017.1
20260502203411 48 339 8.7 9.6 0.00 0.01 0.01 55 1017.2
20260502202906 49 331 9.6 9.6 0.00 0.01 0.01 53 1016.9
20260502202404 48 313 9.6 11.3 0.00 0.01 0.01 54 1016.9
20260502201902 48 318 9.6 11.3 0.00 0.01 0.01 54 1016.9
20260502201357 49 347 6.1 7.8 0.00 0.01 0.01 51 1017.0
20260502200854 50 329 9.6 11.3 0.00 0.01 0.01 49 1017.0
20260502200350 48 341 10.4 13.0 0.00 0.01 0.01 57 1017.0
20260502195849 48 349 7.0 7.8 0.00 0.01 0.01 55 1017.1
20260502195345 49 33 6.1 8.7 0.00 0.01 0.01 59 1017.2
20260502194842 49 298 7.0 7.8 0.00 0.01 0.01 54 1017.1
20260502194338 48 342 8.7 11.3 0.00 0.01 0.01 55 1017.1
20260502193834 48 326 10.4 12.2 0.00 0.01 0.01 55 1017.2
20260502193332 48 339 9.6 9.6 0.00 0.01 0.01 56 1017.2
20260502192827 49 313 9.6 11.3 0.00 0.01 0.01 59 1017.3
20260502192324 50 334 11.3 13.0 0.00 0.01 0.01 58 1017.3
20260502191821 48 344 7.0 7.0 0.00 0.01 0.01 54 1017.4
20260502191320 48 355 11.3 13.0 0.00 0.01 0.01 56 1017.2
20260502190816 48 355 7.8 11.3 0.00 0.01 0.01 52 1017.3
20260502190314 48 344 6.1 7.0 0.00 0.01 0.01 53 1017.3
20260502185809 48 350 7.8 8.7 0.00 0.01 0.01 56 1017.4
20260502185306 49 331 9.6 11.3 0.00 0.01 0.01 58 1017.5
20260502184802 48 337 5.2 6.1 0.00 0.01 0.01 55 1017.4
20260502184257 48 2 7.8 9.6 0.00 0.01 0.01 55 1017.6
20260502183754 47 345 7.8 8.7 0.00 0.01 0.01 54 1017.6
20260502183251 48 330 5.2 6.1 0.00 0.01 0.01 55 1017.5
20260502182746 49 298 5.2 7.0 0.00 0.01 0.01 56 1017.4
20260502182241 49 353 7.8 8.7 0.00 0.01 0.01 54 1017.6
20260502181737 48 6 5.2 7.0 0.00 0.01 0.01 61 1017.5
20260502181232 48 336 7.0 7.8 0.00 0.01 0.01 60 1017.6
20260502180728 48 343 13.0 14.8 0.00 0.01 0.01 54 1017.5
20260502180225 48 329 7.8 9.6 0.00 0.01 0.01 55 1017.5
20260502170144 48 317 7.8 8.7 0.00 0.01 0.01 59 1017.7
20260502164130 47 335 7.8 7.8 0.00 0.01 0.01 58 1017.9
20260502163626 48 325 10.4 12.2 0.00 0.01 0.01 57 1017.9
20260502163123 48 323 7.8 8.7 0.00 0.01 0.01 58 1018.1
20260502162620 48 2 7.8 8.7 0.00 0.01 0.01 63 1018.0
20260502162117 46 337 11.3 13.0 0.00 0.01 0.01 64 1018.1
20260502161614 46 299 7.8 8.7 0.00 0.01 0.01 61 1018.0
20260502161111 46 338 8.7 8.7 0.00 0.01 0.01 61 1018.0
20260502160610 47 319 11.3 13.0 0.00 0.01 0.01 57 1018.1
20260502160108 46 351 7.8 9.6 0.00 0.01 0.01 63 1018.0
20260502152022 47 330 7.8 7.8 0.00 0.01 0.01 63 1018.1
20260502151519 45 336 7.8 11.3 0.00 0.01 0.01 67 1018.2
20260502151016 45 328 8.7 9.6 0.00 0.01 0.01 64 1017.9
20260502150514 45 17 7.0 8.7 0.00 0.01 0.01 65 1018.0
20260502130359 40 330 5.2 6.1 0.00 0.01 0.01 81 1017.8
20260502123341 37 337 5.2 6.1 0.00 0.01 0.01 99 1017.7
20260502122839 37 3 4.3 6.1 0.00 0.01 0.01 99 1017.8
20260502122334 37 346 3.5 3.5 0.00 0.01 0.01 99 1017.8
20260502121833 36 327 4.3 6.1 0.00 0.01 0.01 99 1017.6
20260502121330 36 332 4.3 5.2 0.00 0.01 0.01 99 1017.7
20260502120827 36 328 2.6 2.6 0.00 0.01 0.01 99 1017.6
20260502120323 35 340 2.6 2.6 0.00 0.01 0.01 99 1017.6
20260502115821 38 67 0.0 0.0 0.00 0.01 0.01 99 1017.7
20260502115318 37 68 0.0 0.0 0.00 0.01 0.01 99 1017.5
20260502114814 38 68 0.0 0.0 0.00 0.01 0.01 99 1017.9
20260502114311 36 68 0.0 0.0 0.00 0.01 0.01 99 1017.8
20260502113808 35 68 0.0 0.0 0.00 0.01 0.01 99 1017.6
20260502113306 37 68 0.0 0.0 0.00 0.01 0.01 99 1017.9
20260502112804 34 68 0.0 0.0 0.00 0.01 0.01 99 1017.6
20260502112301 32 68 0.0 0.0 0.00 0.01 0.01 99 1017.8
20260502111758 32 68 0.0 0.0 0.00 0.01 0.01 99 1017.7
20260502111255 32 69 0.0 0.0 0.00 0.01 0.01 99 1017.7
20260502110753 32 69 0.0 0.0 0.00 0.01 0.01 99 1017.6
20260502110251 32 66 0.0 0.0 0.00 0.01 0.01 99 1017.4
20260502105748 32 66 0.0 0.0 0.00 0.01 0.01 99 1017.6
20260502105244 31 66 0.0 0.0 0.00 0.01 0.01 99 1017.4
20260502104742 31 66 0.0 0.0 0.00 0.01 0.01 99 1017.4
20260502104240 32 66 0.0 0.0 0.00 0.01 0.01 99 1017.7
20260502103737 32 66 0.0 0.0 0.00 0.01 0.01 99 1017.3
20260502103234 32 66 0.0 0.0 0.00 0.01 0.01 99 1017.4
20260502102731 32 65 0.0 0.0 0.00 0.01 0.01 99 1017.4
20260502102228 32 65 0.0 0.0 0.00 0.01 0.01 99 1017.5
20260502101726 32 64 0.0 0.0 0.00 0.01 0.01 99 1017.3
20260502101224 31 64 0.0 0.0 0.00 0.01 0.01 99 1017.5
20260502100722 32 64 0.0 0.0 0.00 0.01 0.01 99 1017.4
20260502100220 32 64 0.0 0.0 0.00 0.01 0.01 99 1017.2
20260502091154 32 201 0.0 0.0 0.00 0.01 0.01 99 1017.6
20260502090651 32 201 0.0 0.0 0.00 0.01 0.01 99 1017.5
20260502090148 32 201 0.0 0.0 0.00 0.01 0.01 99 1017.3
20260502080111 33 44 0.0 0.0 0.00 0.01 0.01 99 1017.3
20260502071044 33 46 0.0 0.0 0.05 0.01 0.01 99 1016.9
20260502070542 33 41 0.0 0.0 0.05 0.01 0.01 99 1017.1
20260502070039 33 47 0.0 0.0 0.00 0.00 0.00 99 1017.0
20260502065538 33 48 0.0 0.0 0.00 0.00 0.00 99 1017.1
20260502065034 33 47 0.0 0.0 0.00 0.00 0.00 99 1017.2
20260502064533 34 55 0.0 0.0 0.00 0.00 0.00 99 1017.3
20260502064024 35 43 0.0 0.0 0.00 0.00 0.00 99 1017.3
20260502063522 34 42 0.0 0.0 0.00 0.00 0.00 99 1017.2
20260502063020 35 42 0.0 0.0 0.00 0.00 0.00 99 1017.3
20260502062516 35 42 0.0 0.0 0.00 0.00 0.00 99 1017.4
20260502062015 36 42 0.0 0.0 0.00 0.00 0.00 99 1017.5
20260502061512 35 42 0.0 0.0 0.00 0.00 0.00 99 1017.3
20260502061009 36 42 0.0 0.0 0.00 0.00 0.00 99 1017.4
20260502060504 37 101 0.0 0.0 0.00 0.00 0.00 99 1017.5
20260502060001 36 39 0.0 0.0 0.00 0.00 0.00 99 1017.6
20260502055459 35 39 0.0 0.0 0.00 0.00 0.00 99 1017.6
20260502054958 35 39 0.0 0.0 0.00 0.00 0.00 99 1017.6
20260502054455 36 39 0.0 0.0 0.00 0.00 0.00 99 1017.7
20260502053952 36 39 0.0 0.0 0.00 0.00 0.00 99 1017.6
20260502053449 36 40 0.0 0.0 0.00 0.00 0.00 99 1017.7
20260502052947 37 39 0.0 0.0 0.00 0.00 0.00 99 1017.6
20260502052445 37 39 0.0 0.0 0.00 0.00 0.00 99 1017.7
20260502051944 36 39 0.0 0.0 0.00 0.00 0.00 99 1017.5
20260502051441 37 40 0.0 0.0 0.00 0.00 0.00 99 1017.5
20260502050938 37 47 0.0 0.0 0.00 0.00 0.00 99 1017.4
20260502050434 38 47 0.0 0.0 0.00 0.00 0.00 99 1017.7
20260502045932 38 66 0.0 0.0 0.00 0.00 0.00 99 1017.6
20260502045428 37 70 0.0 0.0 0.00 0.00 0.00 99 1017.5
20260502044925 38 91 0.0 0.0 0.00 0.00 0.00 99 1017.5
20260502044421 38 31 0.0 0.0 0.00 0.00 0.00 99 1017.6
20260502043918 38 31 0.0 0.0 0.00 0.00 0.00 99 1017.3
20260502043416 38 47 0.0 0.0 0.00 0.00 0.00 99 1017.7
20260502042915 38 45 0.0 0.0 0.00 0.00 0.00 99 1017.6
20260502042413 37 51 0.0 0.0 0.00 0.00 0.00 99 1017.5
20260502041910 39 55 0.0 0.9 0.00 0.00 0.00 98 1017.7
20260502041408 39 7 0.0 0.0 0.00 0.00 0.00 99 1017.6
20260502040905 39 6 0.0 0.0 0.00 0.00 0.00 99 1017.6
20260502040401 39 245 0.0 0.0 0.00 0.00 0.00 98 1017.7
20260502035857 39 179 1.7 1.7 0.00 0.06 0.06 98 1017.7
20260502035354 39 158 1.7 1.7 0.00 0.06 0.06 98 1018.0
20260502034851 39 191 1.7 1.7 0.00 0.06 0.06 98 1017.8
20260502034350 39 174 1.7 1.7 0.00 0.06 0.06 98 1017.8
20260502033848 40 181 0.9 0.9 0.00 0.06 0.06 98 1017.8
20260502033345 40 172 1.7 1.7 0.00 0.06 0.06 97 1017.7
20260502032841 40 185 2.6 2.6 0.00 0.06 0.06 97 1017.9
20260502032338 40 190 2.6 2.6 0.00 0.06 0.06 97 1017.7
20260502031836 40 196 1.7 1.7 0.00 0.06 0.06 96 1017.8
20260502031334 40 199 0.0 0.0 0.00 0.06 0.06 96 1017.6
20260502030832 40 137 0.0 0.0 0.00 0.06 0.06 96 1017.5
20260502030330 40 137 0.0 0.0 0.00 0.06 0.06 96 1017.6
20260502025826 41 65 0.9 0.9 0.00 0.06 0.06 96 1017.6
20260502025324 41 58 0.0 0.0 0.00 0.06 0.06 96 1017.6
20260502024822 42 65 0.0 0.9 0.00 0.06 0.06 96 1017.7
20260502024320 41 48 2.6 3.5 0.00 0.06 0.06 95 1017.9
20260502023817 42 52 0.9 1.7 0.00 0.06 0.06 95 1017.7
20260502023315 42 60 1.7 2.6 0.12 0.06 0.06 94 1017.8
20260502022813 42 60 3.5 3.5 0.19 0.06 0.06 93 1017.6